EWG3UC LDZA-EDDK

Flight info

Callsign EWG3UC
Flight time 1h 24m
Altitude 38000
Route OBUTI DCT GOLVA DCT NEMAL DCT SIMBA DCT AKINI Z109 UPALA L610 KOMIB L984 ASKIK T840 GULKO GULKO1B
Aircraft A319/M-SDE3FGHIRWY/LB1

Departure

Time 2026-04-26 14:49
Airport Zagreb Franjo Tuđman International Airport (LDZA)

Arrival

Time 2026-04-26 16:14
Airport Cologne Bonn Airport (EDDK)
Time Latitude Longitude Altitude Speed Heading
2026-04-26 14:25 45.74203 16.07880 363 ft 0 kts 136°
2026-04-26 14:34 45.74207 16.07875 359 ft 3 kts 136°
2026-04-26 14:34 45.74223 16.07853 358 ft 3 kts 136°
2026-04-26 14:34 45.74240 16.07831 365 ft 3 kts 136°
2026-04-26 14:34 45.74253 16.07812 366 ft 3 kts 139°
2026-04-26 14:35 45.74270 16.07797 365 ft 3 kts 183°
2026-04-26 14:35 45.74284 16.07807 359 ft 3 kts 226°
2026-04-26 14:35 45.74288 16.07813 359 ft 0 kts 226°
2026-04-26 14:38 45.74272 16.07788 365 ft 6 kts 226°
2026-04-26 14:38 45.74248 16.07752 359 ft 9 kts 226°
2026-04-26 14:39 45.74173 16.07637 359 ft 13 kts 226°
2026-04-26 14:39 45.74112 16.07545 359 ft 11 kts 226°
2026-04-26 14:39 45.74074 16.07488 359 ft 9 kts 226°
2026-04-26 14:39 45.74071 16.07397 360 ft 12 kts 315°
2026-04-26 14:40 45.74141 16.07307 363 ft 13 kts 317°
2026-04-26 14:40 45.74185 16.07248 359 ft 11 kts 317°
2026-04-26 14:40 45.74213 16.07155 359 ft 9 kts 251°
2026-04-26 14:40 45.74154 16.07060 359 ft 13 kts 226°
2026-04-26 14:41 45.74084 16.06954 362 ft 16 kts 226°
2026-04-26 14:41 45.74002 16.06830 359 ft 18 kts 226°
2026-04-26 14:41 45.73910 16.06690 361 ft 20 kts 226°
2026-04-26 14:41 45.73848 16.06595 359 ft 16 kts 227°
2026-04-26 14:42 45.73779 16.06490 359 ft 11 kts 226°
2026-04-26 14:42 45.73748 16.06445 359 ft 5 kts 226°
2026-04-26 14:42 45.73740 16.06406 361 ft 3 kts 284°
2026-04-26 14:42 45.73745 16.06393 363 ft 0 kts 302°
2026-04-26 14:43 45.73750 16.06385 359 ft 3 kts 310°
2026-04-26 14:43 45.73757 16.06376 365 ft 0 kts 317°
2026-04-26 14:43 45.73761 16.06370 359 ft 4 kts 317°
2026-04-26 14:44 45.73796 16.06323 362 ft 3 kts 316°
2026-04-26 14:44 45.73798 16.06322 360 ft 0 kts 316°
2026-04-26 14:46 45.73798 16.06321 360 ft 2 kts 316°
2026-04-26 14:46 45.73821 16.06289 361 ft 6 kts 316°
2026-04-26 14:46 45.73861 16.06244 364 ft 9 kts 342°
2026-04-26 14:46 45.73893 16.06268 361 ft 0 kts 49°
2026-04-26 14:48 45.73978 16.06400 361 ft 54 kts 47°
2026-04-26 14:48 45.74410 16.07058 361 ft 124 kts 46°
2026-04-26 14:49 45.75116 16.08123 551 ft 156 kts 49°
2026-04-26 14:49 45.75861 16.09221 1214 ft 155 kts 50°
2026-04-26 14:49 45.76607 16.10347 1832 ft 162 kts 50°
2026-04-26 14:49 45.77421 16.11625 2248 ft 185 kts 50°
2026-04-26 14:50 45.78346 16.13061 2694 ft 208 kts 49°
2026-04-26 14:50 45.79397 16.14669 3183 ft 234 kts 49°
2026-04-26 14:50 45.80565 16.16452 3903 ft 254 kts 48°
2026-04-26 14:50 45.81797 16.18324 4898 ft 263 kts 47°
2026-04-26 14:51 45.83073 16.20257 5835 ft 272 kts 45°
2026-04-26 14:51 45.84386 16.22256 6818 ft 278 kts 44°
2026-04-26 14:51 45.85718 16.24300 7783 ft 282 kts 44°
2026-04-26 14:51 45.87068 16.26367 8790 ft 286 kts 44°
2026-04-26 14:52 45.88440 16.28459 9783 ft 289 kts 44°
2026-04-26 14:52 45.89813 16.30620 10580 ft 300 kts 48°
2026-04-26 14:52 45.91098 16.33034 11365 ft 307 kts 50°
2026-04-26 14:52 45.92406 16.35488 12232 ft 310 kts 45°
2026-04-26 14:53 45.94045 16.37489 13116 ft 310 kts 28°
2026-04-26 14:53 45.96019 16.38708 13976 ft 312 kts 13°
2026-04-26 14:53 45.98234 16.39068 14327 ft 329 kts 355°
2026-04-26 14:53 46.00511 16.38506 14989 ft 335 kts 347°
2026-04-26 14:54 46.02794 16.37809 15754 ft 337 kts 347°
2026-04-26 14:54 46.05111 16.37119 16503 ft 341 kts 348°
2026-04-26 14:54 46.07449 16.36437 17240 ft 345 kts 348°
2026-04-26 14:54 46.09818 16.35733 17987 ft 349 kts 348°
2026-04-26 14:55 46.12204 16.35023 18695 ft 352 kts 348°
2026-04-26 14:55 46.14615 16.34310 19349 ft 355 kts 348°
2026-04-26 14:55 46.17049 16.33582 19987 ft 359 kts 348°
2026-04-26 14:55 46.19512 16.32854 20626 ft 363 kts 348°
2026-04-26 14:56 46.21997 16.32121 21279 ft 366 kts 347°
2026-04-26 14:56 46.24510 16.31380 21894 ft 370 kts 347°
2026-04-26 14:56 46.27043 16.30617 22506 ft 374 kts 347°
2026-04-26 14:56 46.29603 16.29858 23123 ft 377 kts 347°
2026-04-26 14:57 46.32184 16.29092 23730 ft 381 kts 347°
2026-04-26 14:57 46.34757 16.28131 24237 ft 383 kts 339°
2026-04-26 14:57 46.37165 16.26490 24739 ft 384 kts 328°
2026-04-26 14:57 46.39318 16.24183 25222 ft 387 kts 317°
2026-04-26 14:58 46.41116 16.21347 25711 ft 389 kts 308°
2026-04-26 14:58 46.42777 16.18236 26217 ft 392 kts 307°
2026-04-26 14:58 46.44446 16.15099 26704 ft 395 kts 307°
2026-04-26 14:58 46.46131 16.11941 27219 ft 397 kts 307°
2026-04-26 14:59 46.47824 16.08769 27730 ft 399 kts 307°
2026-04-26 14:59 46.49520 16.05572 28230 ft 401 kts 307°
2026-04-26 14:59 46.51234 16.02362 28737 ft 403 kts 307°
2026-04-26 14:59 46.52399 16.00180 29071 ft 405 kts 307°
2026-04-26 15:00 46.54688 15.95882 29708 ft 408 kts 307°
2026-04-26 15:00 46.56426 15.92607 30177 ft 410 kts 307°
2026-04-26 15:00 46.58175 15.89313 30579 ft 413 kts 307°
2026-04-26 15:00 46.59926 15.85996 30954 ft 415 kts 307°
2026-04-26 15:01 46.61689 15.82658 31326 ft 417 kts 307°
2026-04-26 15:01 46.63473 15.79305 31682 ft 420 kts 307°
2026-04-26 15:01 46.65250 15.75932 32087 ft 420 kts 306°
2026-04-26 15:01 46.67027 15.72560 32594 ft 419 kts 306°
2026-04-26 15:02 46.68791 15.69190 33093 ft 418 kts 306°
2026-04-26 15:02 46.70553 15.65838 33594 ft 417 kts 306°
2026-04-26 15:02 46.72375 15.62561 34095 ft 416 kts 309°
2026-04-26 15:02 46.74274 15.59380 34564 ft 414 kts 309°
2026-04-26 15:03 46.76146 15.56198 35046 ft 412 kts 309°
2026-04-26 15:03 46.78002 15.53026 35492 ft 411 kts 309°
2026-04-26 15:03 46.79849 15.49858 35929 ft 409 kts 309°
2026-04-26 15:03 46.81681 15.46682 36344 ft 408 kts 308°
2026-04-26 15:04 46.83509 15.43518 36752 ft 407 kts 308°
2026-04-26 15:04 46.85311 15.40398 37144 ft 406 kts 309°
2026-04-26 15:04 46.87157 15.37211 37545 ft 405 kts 309°
2026-04-26 15:04 46.88954 15.34108 37913 ft 405 kts 309°
2026-04-26 15:05 46.90771 15.30958 38147 ft 406 kts 308°
2026-04-26 15:05 46.94404 15.24663 38162 ft 405 kts 308°
2026-04-26 15:06 46.98022 15.18355 38159 ft 405 kts 308°
2026-04-26 15:06 47.01649 15.12042 38155 ft 406 kts 308°
2026-04-26 15:07 47.07094 15.02493 38149 ft 408 kts 308°
2026-04-26 15:07 47.10732 14.96103 38127 ft 408 kts 308°
2026-04-26 15:08 47.14380 14.89699 38137 ft 410 kts 308°
2026-04-26 15:08 47.18040 14.83258 38146 ft 411 kts 308°
2026-04-26 15:09 47.21699 14.76789 38148 ft 412 kts 308°
2026-04-26 15:09 47.25358 14.70303 38149 ft 412 kts 308°
2026-04-26 15:10 47.28405 14.64914 38174 ft 412 kts 308°
2026-04-26 15:10 47.32680 14.57301 38174 ft 412 kts 308°
2026-04-26 15:11 47.36326 14.50777 38171 ft 412 kts 308°
2026-04-26 15:11 47.39968 14.44266 38186 ft 412 kts 308°
2026-04-26 15:12 47.43605 14.37746 38191 ft 411 kts 307°
2026-04-26 15:12 47.47239 14.31218 38207 ft 411 kts 307°
2026-04-26 15:13 47.50878 14.24685 38208 ft 412 kts 307°
2026-04-26 15:13 47.54503 14.18123 38210 ft 412 kts 307°
2026-04-26 15:14 47.58128 14.11548 38216 ft 412 kts 307°
2026-04-26 15:14 47.61763 14.04972 38214 ft 412 kts 307°
2026-04-26 15:15 47.65358 13.98425 38208 ft 413 kts 307°
2026-04-26 15:15 47.68986 13.91810 38206 ft 413 kts 307°
2026-04-26 15:16 47.72609 13.85195 38219 ft 413 kts 307°
2026-04-26 15:16 47.76239 13.78564 38214 ft 414 kts 307°
2026-04-26 15:17 47.79273 13.72992 38209 ft 414 kts 307°
2026-04-26 15:17 47.83476 13.65249 38219 ft 414 kts 307°
2026-04-26 15:18 47.87092 13.58576 38231 ft 414 kts 307°
2026-04-26 15:18 47.90702 13.51902 38226 ft 414 kts 307°
2026-04-26 15:19 47.94590 13.45564 38220 ft 415 kts 312°
2026-04-26 15:19 47.98614 13.39387 38220 ft 415 kts 312°
2026-04-26 15:20 48.02635 13.33204 38221 ft 415 kts 312°
2026-04-26 15:20 48.06652 13.27013 38219 ft 415 kts 311°
2026-04-26 15:21 48.10660 13.20807 38216 ft 415 kts 311°
2026-04-26 15:21 48.14669 13.14581 38219 ft 415 kts 311°
2026-04-26 15:22 48.18671 13.08354 38224 ft 415 kts 311°
2026-04-26 15:22 48.22673 13.02113 38222 ft 415 kts 311°
2026-04-26 15:23 48.26517 12.95675 38220 ft 414 kts 309°
2026-04-26 15:23 48.30339 12.89193 38226 ft 414 kts 309°
2026-04-26 15:24 48.34154 12.82716 38225 ft 414 kts 309°
2026-04-26 15:24 48.37960 12.76225 38240 ft 414 kts 309°
2026-04-26 15:25 48.41134 12.70843 38231 ft 413 kts 309°
2026-04-26 15:25 48.45563 12.63245 38230 ft 413 kts 309°
2026-04-26 15:26 48.49361 12.56755 38232 ft 413 kts 309°
2026-04-26 15:26 48.53151 12.50252 38231 ft 412 kts 309°
2026-04-26 15:27 48.56290 12.44831 38235 ft 412 kts 309°
2026-04-26 15:27 48.60063 12.38309 38237 ft 412 kts 309°
2026-04-26 15:28 48.63843 12.31785 38233 ft 412 kts 309°
2026-04-26 15:28 48.67602 12.25242 38251 ft 412 kts 309°
2026-04-26 15:29 48.71370 12.18709 38245 ft 412 kts 309°
2026-04-26 15:30 48.78666 12.05373 38241 ft 411 kts 306°
2026-04-26 15:30 48.82203 11.98566 38243 ft 411 kts 307°
2026-04-26 15:31 48.87512 11.88370 38240 ft 410 kts 306°
2026-04-26 15:32 48.92207 11.79291 38259 ft 410 kts 306°
2026-04-26 15:32 48.96323 11.71317 38258 ft 410 kts 306°
2026-04-26 15:33 48.99840 11.64487 38251 ft 410 kts 306°
2026-04-26 15:33 49.03353 11.57649 38252 ft 409 kts 306°
2026-04-26 15:34 49.06855 11.50813 38241 ft 409 kts 306°
2026-04-26 15:34 49.10357 11.43959 38242 ft 410 kts 306°
2026-04-26 15:35 49.13853 11.37095 38245 ft 409 kts 306°
2026-04-26 15:35 49.17345 11.30224 38245 ft 409 kts 306°
2026-04-26 15:36 49.20836 11.23357 38259 ft 409 kts 306°
2026-04-26 15:36 49.24685 11.16918 38257 ft 410 kts 311°
2026-04-26 15:37 49.28592 11.10624 38255 ft 411 kts 311°
2026-04-26 15:37 49.32523 11.04268 38259 ft 411 kts 311°
2026-04-26 15:38 49.36452 10.97907 38259 ft 411 kts 311°
2026-04-26 15:38 49.40703 10.92052 38260 ft 413 kts 323°
2026-04-26 15:39 49.45442 10.87043 38263 ft 414 kts 323°
2026-04-26 15:39 49.49401 10.82801 38272 ft 414 kts 322°
2026-04-26 15:40 49.54900 10.76919 38267 ft 414 kts 323°
2026-04-26 15:40 49.59631 10.71867 38264 ft 414 kts 323°
2026-04-26 15:41 49.64353 10.66796 38265 ft 414 kts 323°
2026-04-26 15:41 49.69069 10.61723 38268 ft 413 kts 323°
2026-04-26 15:42 49.73786 10.56641 38278 ft 413 kts 323°
2026-04-26 15:42 49.78662 10.51906 38274 ft 414 kts 326°
2026-04-26 15:43 49.83561 10.47217 38281 ft 414 kts 326°
2026-04-26 15:44 49.90906 10.40167 38281 ft 414 kts 326°
2026-04-26 15:44 49.98250 10.33080 38288 ft 414 kts 326°
2026-04-26 15:45 50.02984 10.28018 38280 ft 411 kts 314°
2026-04-26 15:45 50.04848 10.24669 38284 ft 409 kts 303°
2026-04-26 15:46 50.07055 10.16591 38284 ft 409 kts 281°
2026-04-26 15:46 50.07319 10.12190 38254 ft 409 kts 271°
2026-04-26 15:46 50.07284 10.07771 37924 ft 407 kts 270°
2026-04-26 15:46 50.07248 10.04853 37742 ft 407 kts 270°
2026-04-26 15:47 50.07190 9.98952 37385 ft 408 kts 270°
2026-04-26 15:47 50.07124 9.90108 36847 ft 409 kts 270°
2026-04-26 15:47 50.07073 9.85676 36593 ft 410 kts 270°
2026-04-26 15:48 50.07029 9.81248 36331 ft 410 kts 270°
2026-04-26 15:48 50.06982 9.76818 36075 ft 408 kts 270°
2026-04-26 15:48 50.06942 9.72412 35821 ft 407 kts 270°
2026-04-26 15:48 50.06902 9.68026 35567 ft 404 kts 270°
2026-04-26 15:49 50.06863 9.63667 35164 ft 401 kts 270°
2026-04-26 15:49 50.06816 9.59340 34724 ft 399 kts 270°
2026-04-26 15:49 50.06764 9.55027 34316 ft 397 kts 270°
2026-04-26 15:49 50.06722 9.50750 33847 ft 394 kts 270°
2026-04-26 15:50 50.06674 9.46517 33437 ft 390 kts 270°
2026-04-26 15:50 50.06615 9.42314 33014 ft 386 kts 270°
2026-04-26 15:50 50.06566 9.38153 32600 ft 383 kts 270°
2026-04-26 15:50 50.06517 9.34020 32186 ft 380 kts 270°
2026-04-26 15:51 50.06467 9.29918 31774 ft 378 kts 270°
2026-04-26 15:51 50.06412 9.25851 31368 ft 376 kts 270°
2026-04-26 15:51 50.06355 9.21789 30960 ft 374 kts 270°
2026-04-26 15:51 50.06294 9.17754 30560 ft 372 kts 270°
2026-04-26 15:52 50.06229 9.13732 30122 ft 371 kts 271°
2026-04-26 15:52 50.06165 9.09779 29717 ft 368 kts 271°
2026-04-26 15:52 50.06101 9.05811 29329 ft 366 kts 271°
2026-04-26 15:52 50.06062 9.03144 29056 ft 365 kts 271°
2026-04-26 15:53 50.05989 8.97886 28531 ft 362 kts 271°
2026-04-26 15:53 50.05922 8.94040 28146 ft 359 kts 270°
2026-04-26 15:53 50.05849 8.90166 27754 ft 357 kts 270°
2026-04-26 15:53 50.05786 8.86318 27366 ft 355 kts 270°
2026-04-26 15:54 50.05715 8.82502 26976 ft 353 kts 270°
2026-04-26 15:54 50.05644 8.78691 26586 ft 351 kts 270°
2026-04-26 15:54 50.05572 8.74914 26201 ft 348 kts 270°
2026-04-26 15:54 50.05500 8.71156 25807 ft 346 kts 270°
2026-04-26 15:55 50.05434 8.67423 25418 ft 344 kts 270°
2026-04-26 15:55 50.05366 8.63705 25025 ft 343 kts 270°
2026-04-26 15:55 50.05464 8.60025 24628 ft 340 kts 282°
2026-04-26 15:55 50.06196 8.56559 24240 ft 337 kts 297°
2026-04-26 15:56 50.07535 8.53598 23850 ft 336 kts 314°
2026-04-26 15:56 50.09371 8.51370 23407 ft 336 kts 330°
2026-04-26 15:56 50.11518 8.49980 23030 ft 334 kts 339°
2026-04-26 15:56 50.13709 8.48809 22639 ft 331 kts 339°
2026-04-26 15:57 50.15878 8.47646 22256 ft 329 kts 339°
2026-04-26 15:57 50.18039 8.46487 21868 ft 327 kts 339°
2026-04-26 15:57 50.20180 8.45332 21490 ft 325 kts 339°
2026-04-26 15:57 50.21596 8.44574 21245 ft 323 kts 339°
2026-04-26 15:58 50.24431 8.43043 20748 ft 322 kts 339°
2026-04-26 15:58 50.26542 8.41900 20366 ft 320 kts 339°
2026-04-26 15:58 50.28635 8.40726 19988 ft 319 kts 335°
2026-04-26 15:58 50.30573 8.39078 19619 ft 316 kts 326°
2026-04-26 15:59 50.32421 8.37227 19244 ft 315 kts 326°
2026-04-26 15:59 50.34264 8.35382 18876 ft 314 kts 326°
2026-04-26 15:59 50.36102 8.33545 18494 ft 313 kts 326°
2026-04-26 15:59 50.37935 8.31705 18089 ft 312 kts 326°
2026-04-26 16:00 50.39757 8.29890 17721 ft 309 kts 326°
2026-04-26 16:00 50.41568 8.28084 17353 ft 307 kts 326°
2026-04-26 16:00 50.43363 8.26295 16986 ft 305 kts 326°
2026-04-26 16:00 50.45064 8.24589 16637 ft 303 kts 326°
2026-04-26 16:01 50.46839 8.22808 16269 ft 302 kts 326°
2026-04-26 16:01 50.48607 8.21022 15900 ft 301 kts 326°
2026-04-26 16:01 50.50370 8.19248 15533 ft 300 kts 326°
2026-04-26 16:01 50.52124 8.17482 15165 ft 299 kts 326°
2026-04-26 16:02 50.53872 8.15719 14799 ft 298 kts 326°
2026-04-26 16:02 50.55619 8.13972 14436 ft 297 kts 326°
2026-04-26 16:02 50.57356 8.12228 14070 ft 296 kts 326°
2026-04-26 16:02 50.58506 8.11073 13800 ft 295 kts 326°
2026-04-26 16:03 50.60804 8.08756 13315 ft 292 kts 326°
2026-04-26 16:03 50.62503 8.07025 12930 ft 290 kts 326°
2026-04-26 16:03 50.64191 8.05318 12575 ft 287 kts 326°
2026-04-26 16:03 50.65845 8.03641 12224 ft 285 kts 326°
2026-04-26 16:04 50.67505 8.01948 11871 ft 284 kts 326°
2026-04-26 16:04 50.69147 8.00178 11510 ft 282 kts 317°
2026-04-26 16:04 50.70245 7.97718 11281 ft 280 kts 291°
2026-04-26 16:04 50.70552 7.94683 11255 ft 283 kts 274°
2026-04-26 16:05 50.70605 7.91577 11247 ft 284 kts 274°
2026-04-26 16:05 50.70651 7.88470 11248 ft 284 kts 274°
2026-04-26 16:05 50.70696 7.85353 11038 ft 283 kts 274°
2026-04-26 16:05 50.70741 7.82258 10767 ft 281 kts 274°
2026-04-26 16:06 50.70783 7.79178 10434 ft 280 kts 274°
2026-04-26 16:06 50.70824 7.76117 10081 ft 279 kts 274°
2026-04-26 16:06 50.70863 7.73060 9659 ft 279 kts 274°
2026-04-26 16:06 50.70903 7.70001 9240 ft 279 kts 274°
2026-04-26 16:07 50.70949 7.66941 8824 ft 279 kts 274°
2026-04-26 16:07 50.71000 7.63886 8412 ft 279 kts 274°
2026-04-26 16:07 50.71055 7.60824 8011 ft 279 kts 274°
2026-04-26 16:07 50.71112 7.57793 7608 ft 274 kts 274°
2026-04-26 16:08 50.71173 7.54813 7214 ft 270 kts 274°
2026-04-26 16:08 50.71214 7.52859 6955 ft 268 kts 274°
2026-04-26 16:08 50.71303 7.48947 6423 ft 266 kts 273°
2026-04-26 16:08 50.71376 7.46035 6011 ft 264 kts 274°
2026-04-26 16:09 50.71449 7.43163 5601 ft 259 kts 273°
2026-04-26 16:09 50.71523 7.40398 5205 ft 253 kts 274°
2026-04-26 16:09 50.71870 7.37694 4790 ft 246 kts 292°
2026-04-26 16:09 50.72677 7.35406 4381 ft 239 kts 308°
2026-04-26 16:10 50.73780 7.33499 3972 ft 233 kts 317°
2026-04-26 16:10 50.74962 7.31793 3552 ft 229 kts 319°
2026-04-26 16:10 50.76136 7.30105 3009 ft 230 kts 319°
2026-04-26 16:10 50.77319 7.28403 2543 ft 229 kts 319°
2026-04-26 16:11 50.78475 7.26736 2220 ft 220 kts 319°
2026-04-26 16:11 50.79577 7.25146 1926 ft 207 kts 318°
2026-04-26 16:11 50.80592 7.23681 1659 ft 188 kts 318°
2026-04-26 16:11 50.81509 7.22359 1421 ft 172 kts 318°
2026-04-26 16:12 50.82346 7.21153 1187 ft 151 kts 318°
2026-04-26 16:12 50.83074 7.20101 992 ft 134 kts 318°
2026-04-26 16:12 50.84385 7.18206 642 ft 123 kts 317°
2026-04-26 16:13 50.85013 7.17306 494 ft 121 kts 317°
2026-04-26 16:13 50.85428 7.16709 395 ft 121 kts 317°
2026-04-26 16:13 50.86032 7.15828 298 ft 108 kts 317°
2026-04-26 16:13 50.86468 7.15199 281 ft 63 kts 318°
2026-04-26 16:14 50.86742 7.14800 268 ft 41 kts 317°
2026-04-26 16:14 50.86865 7.14506 261 ft 26 kts 286°
2026-04-26 16:14 50.86893 7.14269 256 ft 0 kts 279°
2026-04-26 16:16 50.86895 7.14246 256 ft 8 kts 279°
2026-04-26 16:16 50.86908 7.14126 255 ft 13 kts 279°
2026-04-26 16:17 50.86926 7.13959 251 ft 16 kts 281°
2026-04-26 16:17 50.87001 7.13811 244 ft 20 kts 318°
2026-04-26 16:17 50.87097 7.13672 240 ft 20 kts 317°
2026-04-26 16:17 50.87207 7.13511 238 ft 22 kts 317°
2026-04-26 16:18 50.87324 7.13342 232 ft 22 kts 317°
2026-04-26 16:18 50.87527 7.13049 232 ft 20 kts 317°
2026-04-26 16:19 50.87734 7.12748 232 ft 19 kts 317°
2026-04-26 16:19 50.87815 7.12633 233 ft 14 kts 324°
2026-04-26 16:19 50.87990 7.12537 233 ft 8 kts 297°
2026-04-26 16:20 50.87980 7.12473 232 ft 6 kts 245°
2026-04-26 16:20 50.87963 7.12415 232 ft 1 kts 245°
2026-04-26 16:20 50.87963 7.12413 232 ft 0 kts 245°